TQILA13 KDYS-KDYS

Flight info

Callsign TQILA13
Flight time 1h 31m
Altitude 15000
Route ABI LANCER MOA D/0100
Aircraft B1/H-VGDW/C

Departure

Time 2026-05-06 18:53
Airport Dyess Air Force Base (KDYS)

Arrival

Time 2026-05-06 20:24
Airport Dyess Air Force Base (KDYS)
Time Latitude Longitude Altitude Speed Heading
2026-05-06 18:33 32.40762 -99.84550 1840 ft 0 kts 258°
2026-05-06 18:46 32.40762 -99.84552 1843 ft 1 kts 258°
2026-05-06 18:46 32.40760 -99.84560 1840 ft 2 kts 258°
2026-05-06 18:46 32.40750 -99.84599 1840 ft 5 kts 235°
2026-05-06 18:46 32.40729 -99.84606 1842 ft 6 kts 182°
2026-05-06 18:47 32.40679 -99.84602 1839 ft 2 kts 188°
2026-05-06 18:47 32.40665 -99.84613 1840 ft 3 kts 228°
2026-05-06 18:47 32.40653 -99.84649 1843 ft 8 kts 258°
2026-05-06 18:47 32.40631 -99.84730 1841 ft 6 kts 220°
2026-05-06 18:48 32.40588 -99.84739 1840 ft 8 kts 173°
2026-05-06 18:48 32.40516 -99.84722 1840 ft 13 kts 168°
2026-05-06 18:48 32.40408 -99.84698 1840 ft 17 kts 173°
2026-05-06 18:48 32.40327 -99.84734 1841 ft 11 kts 232°
2026-05-06 18:49 32.40301 -99.84826 1841 ft 10 kts 258°
2026-05-06 18:49 32.40288 -99.84908 1840 ft 11 kts 261°
2026-05-06 18:49 32.40286 -99.84928 1843 ft 0 kts 267°
2026-05-06 18:50 32.40286 -99.84932 1843 ft 1 kts 272°
2026-05-06 18:50 32.40286 -99.84935 1842 ft 0 kts 272°
2026-05-06 18:50 32.40288 -99.84958 1843 ft 6 kts 278°
2026-05-06 18:50 32.40295 -99.85024 1844 ft 7 kts 274°
2026-05-06 18:51 32.40315 -99.85051 1842 ft 4 kts 338°
2026-05-06 18:51 32.40325 -99.85054 1844 ft 0 kts 350°
2026-05-06 18:51 32.40374 -99.85065 1842 ft 31 kts 349°
2026-05-06 18:52 32.40850 -99.85175 1840 ft 110 kts 349°
2026-05-06 18:52 32.41859 -99.85407 1859 ft 182 kts 349°
2026-05-06 18:52 32.43289 -99.85735 2012 ft 236 kts 350°
2026-05-06 18:52 32.45089 -99.86132 2079 ft 295 kts 350°
2026-05-06 18:53 32.47224 -99.86604 3195 ft 325 kts 351°
2026-05-06 18:53 32.49496 -99.87091 4654 ft 346 kts 349°
2026-05-06 18:53 32.51912 -99.87579 6377 ft 358 kts 347°
2026-05-06 18:53 32.54407 -99.88070 8228 ft 369 kts 346°
2026-05-06 18:54 32.56995 -99.88585 9999 ft 388 kts 346°
2026-05-06 18:54 32.59736 -99.89171 11439 ft 412 kts 341°
2026-05-06 18:54 32.62561 -99.90473 11720 ft 460 kts 326°
2026-05-06 18:54 32.65262 -99.92829 11942 ft 510 kts 314°
2026-05-06 18:55 32.67754 -99.96010 11975 ft 538 kts 305°
2026-05-06 18:55 32.70071 -99.99549 11777 ft 555 kts 304°
2026-05-06 18:55 32.72434 -100.03155 11782 ft 543 kts 304°
2026-05-06 18:55 32.74723 -100.06595 11714 ft 519 kts 304°
2026-05-06 18:56 32.76890 -100.09832 11626 ft 490 kts 304°
2026-05-06 18:56 32.78982 -100.12946 11825 ft 473 kts 304°
2026-05-06 18:56 32.81016 -100.15956 11949 ft 467 kts 304°
2026-05-06 18:56 32.83045 -100.18958 12000 ft 465 kts 304°
2026-05-06 18:57 32.85083 -100.21972 12030 ft 474 kts 304°
2026-05-06 18:57 32.87014 -100.25066 12016 ft 460 kts 295°
2026-05-06 18:57 32.87929 -100.28672 12079 ft 446 kts 276°
2026-05-06 18:57 32.88334 -100.32349 12808 ft 452 kts 274°
2026-05-06 18:58 32.88749 -100.36091 13587 ft 459 kts 275°
2026-05-06 18:58 32.89184 -100.39875 14304 ft 462 kts 274°
2026-05-06 18:58 32.89615 -100.43673 15012 ft 464 kts 274°
2026-05-06 18:58 32.90050 -100.47483 15723 ft 474 kts 274°
2026-05-06 18:59 32.90502 -100.51335 16462 ft 474 kts 274°
2026-05-06 18:59 32.90968 -100.55222 17227 ft 473 kts 274°
2026-05-06 18:59 32.91449 -100.59131 18009 ft 476 kts 274°
2026-05-06 18:59 32.91945 -100.63040 18729 ft 482 kts 274°
2026-05-06 19:00 32.92458 -100.66991 19423 ft 482 kts 274°
2026-05-06 19:00 32.92983 -100.70958 20139 ft 488 kts 274°
2026-05-06 19:00 32.93517 -100.74943 20868 ft 489 kts 274°
2026-05-06 19:00 32.94052 -100.78916 21597 ft 491 kts 274°
2026-05-06 19:01 32.94158 -100.82952 22375 ft 492 kts 263°
2026-05-06 19:01 32.93841 -100.87007 23160 ft 491 kts 261°
2026-05-06 19:01 32.93433 -100.91102 23908 ft 496 kts 260°
2026-05-06 19:01 32.93008 -100.95179 24585 ft 501 kts 260°
2026-05-06 19:02 32.92569 -100.99291 25263 ft 499 kts 259°
2026-05-06 19:02 32.92122 -101.03440 25665 ft 506 kts 259°
2026-05-06 19:02 32.91686 -101.07523 25861 ft 507 kts 259°
2026-05-06 19:02 32.91244 -101.11676 25940 ft 503 kts 259°
2026-05-06 19:03 32.90765 -101.15818 25982 ft 504 kts 256°
2026-05-06 19:03 32.89312 -101.19542 26042 ft 505 kts 231°
2026-05-06 19:03 32.86404 -101.21928 26101 ft 521 kts 205°
2026-05-06 19:03 32.82731 -101.22594 26114 ft 545 kts 189°
2026-05-06 19:04 32.78951 -101.22636 26083 ft 549 kts 185°
2026-05-06 19:04 32.75144 -101.21548 26108 ft 582 kts 161°
2026-05-06 19:04 32.71879 -101.18472 26141 ft 625 kts 136°
2026-05-06 19:04 32.69775 -101.13853 26163 ft 653 kts 112°
2026-05-06 19:05 32.69070 -101.08426 26208 ft 671 kts 96°
2026-05-06 19:05 32.68835 -101.02894 26148 ft 671 kts 95°
2026-05-06 19:05 32.68646 -100.97351 26107 ft 671 kts 95°
2026-05-06 19:05 32.68487 -100.91815 26083 ft 672 kts 95°
2026-05-06 19:06 32.68353 -100.86265 26076 ft 670 kts 94°
2026-05-06 19:06 32.68504 -100.80775 26129 ft 681 kts 82°
2026-05-06 19:06 32.70076 -100.75551 26207 ft 667 kts 57°
2026-05-06 19:06 32.73087 -100.71330 26162 ft 662 kts 35°
2026-05-06 19:07 32.77026 -100.68692 26153 ft 648 kts 12°
2026-05-06 19:07 32.79864 -100.67685 26138 ft 637 kts
2026-05-06 19:07 32.85639 -100.66024 26076 ft 633 kts
2026-05-06 19:07 32.89959 -100.64870 26050 ft 636 kts
2026-05-06 19:08 32.94201 -100.63760 26031 ft 635 kts
2026-05-06 19:08 32.98526 -100.62646 26029 ft 631 kts
2026-05-06 19:08 33.02838 -100.61542 26027 ft 635 kts
2026-05-06 19:08 33.07143 -100.60521 26027 ft 625 kts 359°
2026-05-06 19:09 33.11363 -100.60822 26082 ft 591 kts 334°
2026-05-06 19:09 33.14867 -100.62992 26125 ft 554 kts 309°
2026-05-06 19:09 33.17045 -100.66455 26163 ft 513 kts 285°
2026-05-06 19:09 33.18023 -100.70511 26150 ft 502 kts 272°
2026-05-06 19:10 33.18298 -100.74628 26160 ft 498 kts 266°
2026-05-06 19:10 33.18368 -100.78742 26846 ft 498 kts 265°
2026-05-06 19:10 33.18373 -100.82927 27609 ft 501 kts 265°
2026-05-06 19:10 33.18351 -100.87087 28378 ft 493 kts 264°
2026-05-06 19:11 33.18327 -100.91115 29171 ft 498 kts 264°
2026-05-06 19:11 33.18295 -100.95284 29992 ft 501 kts 264°
2026-05-06 19:11 33.18267 -100.99460 30707 ft 509 kts 264°
2026-05-06 19:11 33.18256 -101.03527 31422 ft 472 kts 264°
2026-05-06 19:12 33.18268 -101.07402 32155 ft 468 kts 264°
2026-05-06 19:12 33.18291 -101.11340 32912 ft 480 kts 264°
2026-05-06 19:12 33.18324 -101.15339 33688 ft 481 kts 264°
2026-05-06 19:12 33.18372 -101.19352 34425 ft 487 kts 264°
2026-05-06 19:13 33.18428 -101.23377 35119 ft 489 kts 264°
2026-05-06 19:13 33.18489 -101.27474 35598 ft 494 kts 264°
2026-05-06 19:13 33.18552 -101.31585 35818 ft 494 kts 264°
2026-05-06 19:14 33.18686 -101.39743 35962 ft 496 kts 265°
2026-05-06 19:14 33.18826 -101.47955 35996 ft 495 kts 265°
2026-05-06 19:15 33.18975 -101.56061 35997 ft 471 kts 265°
2026-05-06 19:15 33.19036 -101.59889 36003 ft 447 kts 261°
2026-05-06 19:15 33.18145 -101.63226 36111 ft 415 kts 233°
2026-05-06 19:15 33.15745 -101.65257 36214 ft 454 kts 204°
2026-05-06 19:16 33.12513 -101.65668 36197 ft 484 kts 189°
2026-05-06 19:16 33.05750 -101.65117 36050 ft 491 kts 185°
2026-05-06 19:17 32.98945 -101.64232 36013 ft 494 kts 185°
2026-05-06 19:17 32.92139 -101.63268 36008 ft 492 kts 184°
2026-05-06 19:18 32.85327 -101.62293 36017 ft 491 kts 184°
2026-05-06 19:18 32.78504 -101.61318 36023 ft 493 kts 184°
2026-05-06 19:19 32.71723 -101.60352 36016 ft 495 kts 185°
2026-05-06 19:19 32.64902 -101.58973 36040 ft 526 kts 167°
2026-05-06 19:19 32.61829 -101.56256 36126 ft 586 kts 140°
2026-05-06 19:20 32.60318 -101.53510 36153 ft 616 kts 123°
2026-05-06 19:20 32.59221 -101.48470 36189 ft 651 kts 98°
2026-05-06 19:20 32.59429 -101.43020 36152 ft 667 kts 88°
2026-05-06 19:21 32.60605 -101.32230 36042 ft 666 kts 83°
2026-05-06 19:21 32.61993 -101.26979 36109 ft 670 kts 64°
2026-05-06 19:21 32.64093 -101.22011 36097 ft 676 kts 61°
2026-05-06 19:22 32.68560 -101.12249 36063 ft 674 kts 60°
2026-05-06 19:22 32.73236 -101.02649 36084 ft 669 kts 48°
2026-05-06 19:22 32.76594 -100.98887 36170 ft 662 kts 29°
2026-05-06 19:23 32.80401 -100.95806 36132 ft 656 kts 26°
2026-05-06 19:23 32.88081 -100.89965 36060 ft 656 kts 25°
2026-05-06 19:24 32.96044 -100.85160 36077 ft 638 kts
2026-05-06 19:24 33.00285 -100.83844 36081 ft 616 kts 357°
2026-05-06 19:24 33.04490 -100.83458 36087 ft 598 kts 346°
2026-05-06 19:24 33.08546 -100.83966 36088 ft 575 kts 334°
2026-05-06 19:25 33.12265 -100.85330 36117 ft 543 kts 320°
2026-05-06 19:25 33.15416 -100.87606 36149 ft 518 kts 307°
2026-05-06 19:25 33.17883 -100.90548 36151 ft 485 kts 294°
2026-05-06 19:25 33.19514 -100.93900 36167 ft 463 kts 280°
2026-05-06 19:26 33.20295 -100.97523 36178 ft 443 kts 267°
2026-05-06 19:26 33.20211 -101.01119 36178 ft 427 kts 253°
2026-05-06 19:26 33.19323 -101.04491 36169 ft 427 kts 242°
2026-05-06 19:26 33.17694 -101.07424 36176 ft 426 kts 228°
2026-05-06 19:27 33.15343 -101.09654 36191 ft 443 kts 213°
2026-05-06 19:27 33.12349 -101.10827 36217 ft 468 kts 195°
2026-05-06 19:27 33.09031 -101.10713 36236 ft 501 kts 180°
2026-05-06 19:27 33.05610 -101.09365 36222 ft 535 kts 165°
2026-05-06 19:28 33.02391 -101.06917 36208 ft 561 kts 151°
2026-05-06 19:28 32.99605 -101.03491 36221 ft 594 kts 137°
2026-05-06 19:28 32.97540 -100.99093 36261 ft 629 kts 115°
2026-05-06 19:28 32.96773 -100.93845 36281 ft 658 kts 98°
2026-05-06 19:29 32.96574 -100.88378 36166 ft 656 kts 96°
2026-05-06 19:29 32.96446 -100.77557 36041 ft 657 kts 95°
2026-05-06 19:29 32.96080 -100.72205 35922 ft 636 kts 111°
2026-05-06 19:30 32.94390 -100.67535 35883 ft 596 kts 136°
2026-05-06 19:30 32.91587 -100.64219 35901 ft 543 kts 160°
2026-05-06 19:30 32.88229 -100.62711 35933 ft 496 kts 185°
2026-05-06 19:30 32.84995 -100.63144 35987 ft 450 kts 211°
2026-05-06 19:31 32.82618 -100.65312 36034 ft 429 kts 237°
2026-05-06 19:31 32.81662 -100.68621 36089 ft 440 kts 263°
2026-05-06 19:31 32.82460 -100.75951 36062 ft 451 kts 273°
2026-05-06 19:32 32.83786 -100.83264 36048 ft 451 kts 274°
2026-05-06 19:32 32.85206 -100.90566 36040 ft 453 kts 275°
2026-05-06 19:33 32.86663 -100.97784 36041 ft 453 kts 275°
2026-05-06 19:33 32.87482 -101.05064 35383 ft 434 kts 258°
2026-05-06 19:34 32.87070 -101.08600 34686 ft 427 kts 256°
2026-05-06 19:34 32.86575 -101.12066 33992 ft 421 kts 255°
2026-05-06 19:34 32.86056 -101.15468 33193 ft 416 kts 255°
2026-05-06 19:34 32.85523 -101.18826 32439 ft 411 kts 255°
2026-05-06 19:35 32.84979 -101.22160 31692 ft 409 kts 255°
2026-05-06 19:35 32.84433 -101.25441 30970 ft 406 kts 255°
2026-05-06 19:35 32.83890 -101.28727 30254 ft 402 kts 255°
2026-05-06 19:35 32.83335 -101.31966 29451 ft 396 kts 251°
2026-05-06 19:36 32.81826 -101.34623 28685 ft 401 kts 220°
2026-05-06 19:36 32.79117 -101.35636 28011 ft 433 kts 188°
2026-05-06 19:36 32.76103 -101.34561 27339 ft 492 kts 158°
2026-05-06 19:36 32.73540 -101.31540 26686 ft 552 kts 130°
2026-05-06 19:37 32.72194 -101.27245 26049 ft 567 kts 103°
2026-05-06 19:37 32.71879 -101.22511 25384 ft 573 kts 96°
2026-05-06 19:37 32.71750 -101.17831 24697 ft 562 kts 95°
2026-05-06 19:37 32.71667 -101.13192 24029 ft 559 kts 95°
2026-05-06 19:38 32.71603 -101.08604 23321 ft 550 kts 94°
2026-05-06 19:38 32.71547 -101.04089 22534 ft 544 kts 94°
2026-05-06 19:38 32.71491 -100.99623 21765 ft 537 kts 94°
2026-05-06 19:38 32.71434 -100.95209 21014 ft 531 kts 94°
2026-05-06 19:39 32.71376 -100.90854 20284 ft 524 kts 94°
2026-05-06 19:39 32.71317 -100.86546 19563 ft 518 kts 94°
2026-05-06 19:39 32.71258 -100.82286 18870 ft 513 kts 94°
2026-05-06 19:39 32.71223 -100.78126 18161 ft 508 kts 91°
2026-05-06 19:40 32.72073 -100.74082 17377 ft 506 kts 60°
2026-05-06 19:40 32.74333 -100.71008 16667 ft 488 kts 29°
2026-05-06 19:40 32.77367 -100.69493 15980 ft 464 kts
2026-05-06 19:40 32.80490 -100.68585 15264 ft 459 kts
2026-05-06 19:41 32.83601 -100.67783 14554 ft 450 kts
2026-05-06 19:41 32.86571 -100.67836 13901 ft 421 kts 335°
2026-05-06 19:41 32.89127 -100.69320 13199 ft 404 kts 322°
2026-05-06 19:41 32.91512 -100.71060 12443 ft 400 kts 321°
2026-05-06 19:42 32.93836 -100.72841 11709 ft 394 kts 320°
2026-05-06 19:42 32.96095 -100.74648 10972 ft 386 kts 318°
2026-05-06 19:42 32.97785 -100.77034 10486 ft 397 kts 294°
2026-05-06 19:42 32.99063 -100.80253 10258 ft 465 kts 291°
2026-05-06 19:43 33.00393 -100.83921 10125 ft 483 kts 290°
2026-05-06 19:43 33.01702 -100.87575 10059 ft 475 kts 290°
2026-05-06 19:43 33.02979 -100.91184 10025 ft 476 kts 290°
2026-05-06 19:43 33.04232 -100.95042 9888 ft 524 kts 283°
2026-05-06 19:44 33.04968 -100.99444 5779 ft 580 kts 279°
2026-05-06 19:44 33.05606 -101.04428 3478 ft 616 kts 272°
2026-05-06 19:44 33.04657 -101.09356 2822 ft 605 kts 251°
2026-05-06 19:44 33.02812 -101.13797 2874 ft 593 kts 251°
2026-05-06 19:45 33.03628 -101.18388 2887 ft 569 kts 295°
2026-05-06 19:45 33.03668 -101.22965 2823 ft 558 kts 274°
2026-05-06 19:45 33.03012 -101.27085 2881 ft 541 kts 216°
2026-05-06 19:45 33.00097 -101.29996 2846 ft 554 kts 225°
2026-05-06 19:46 32.98630 -101.33907 2700 ft 550 kts 292°
2026-05-06 19:46 33.00353 -101.37975 2786 ft 554 kts 298°
2026-05-06 19:46 33.02266 -101.42042 2690 ft 566 kts 298°
2026-05-06 19:46 33.03757 -101.46300 2821 ft 550 kts 283°
2026-05-06 19:47 33.05548 -101.49863 3088 ft 531 kts 326°
2026-05-06 19:47 33.07557 -101.53532 2951 ft 536 kts 312°
2026-05-06 19:47 33.10153 -101.56797 3266 ft 551 kts 313°
2026-05-06 19:47 33.12662 -101.60256 3395 ft 563 kts 296°
2026-05-06 19:48 33.11553 -101.64286 3570 ft 557 kts 211°
2026-05-06 19:48 33.07789 -101.65208 3617 ft 561 kts 185°
2026-05-06 19:48 33.04184 -101.66937 3583 ft 575 kts 221°
2026-05-06 19:48 33.00787 -101.67556 3747 ft 547 kts 143°
2026-05-06 19:49 32.97437 -101.65672 3605 ft 554 kts 178°
2026-05-06 19:49 32.93586 -101.65974 3529 ft 567 kts 184°
2026-05-06 19:49 32.90397 -101.64139 3528 ft 553 kts 116°
2026-05-06 19:49 32.88345 -101.60286 3425 ft 562 kts 132°
2026-05-06 19:50 32.86153 -101.56597 3528 ft 554 kts 96°
2026-05-06 19:50 32.88323 -101.53414 3252 ft 564 kts 11°
2026-05-06 19:50 32.92242 -101.52902 2937 ft 568 kts 13°
2026-05-06 19:50 32.96061 -101.52225 2984 ft 561 kts
2026-05-06 19:51 32.99747 -101.51488 3204 ft 542 kts 49°
2026-05-06 19:51 33.02656 -101.49238 3082 ft 539 kts 347°
2026-05-06 19:51 33.06378 -101.49917 2843 ft 553 kts 359°
2026-05-06 19:51 33.09822 -101.48449 3212 ft 539 kts 52°
2026-05-06 19:52 33.10645 -101.44141 3199 ft 551 kts 89°
2026-05-06 19:52 33.09326 -101.40007 3177 ft 554 kts 136°
2026-05-06 19:52 33.06432 -101.36897 2945 ft 566 kts 128°
2026-05-06 19:52 33.05524 -101.32601 2900 ft 560 kts 74°
2026-05-06 19:53 33.05507 -101.28191 2894 ft 557 kts 117°
2026-05-06 19:53 33.03012 -101.24661 2414 ft 571 kts 134°
2026-05-06 19:53 33.00515 -101.21025 2563 ft 564 kts 117°
2026-05-06 19:53 32.98197 -101.17345 2681 ft 552 kts 141°
2026-05-06 19:54 32.97179 -101.13428 2739 ft 538 kts 70°
2026-05-06 19:54 32.96394 -101.09433 2756 ft 545 kts 142°
2026-05-06 19:54 32.93127 -101.07183 2755 ft 547 kts 149°
2026-05-06 19:54 32.89677 -101.05460 2994 ft 546 kts 169°
2026-05-06 19:55 32.86627 -101.03201 2938 ft 539 kts 126°
2026-05-06 19:55 32.84122 -100.99778 2879 ft 556 kts 131°
2026-05-06 19:55 32.80958 -100.97275 2904 ft 550 kts 164°
2026-05-06 19:55 32.77294 -100.98109 2842 ft 567 kts 213°
2026-05-06 19:56 32.74605 -101.01584 2750 ft 579 kts 237°
2026-05-06 19:56 32.72937 -101.05938 2817 ft 573 kts 267°
2026-05-06 19:56 32.73141 -101.10671 2675 ft 579 kts 278°
2026-05-06 19:56 32.73786 -101.15417 2564 ft 584 kts 281°
2026-05-06 19:57 32.74625 -101.20130 2535 ft 581 kts 285°
2026-05-06 19:57 32.75687 -101.24786 2586 ft 585 kts 285°
2026-05-06 19:57 32.76764 -101.29442 2674 ft 581 kts 281°
2026-05-06 19:57 32.77347 -101.34137 2699 ft 582 kts 275°
2026-05-06 19:58 32.77467 -101.38947 2711 ft 583 kts 268°
2026-05-06 19:58 32.77217 -101.43766 2824 ft 583 kts 266°
2026-05-06 19:58 32.77014 -101.48055 7869 ft 466 kts 270°
2026-05-06 19:58 32.77591 -101.51716 13514 ft 444 kts 287°
2026-05-06 19:59 32.79144 -101.54832 17195 ft 437 kts 303°
2026-05-06 19:59 32.81439 -101.57333 18778 ft 465 kts 316°
2026-05-06 19:59 32.84305 -101.59387 18961 ft 509 kts 324°
2026-05-06 19:59 32.87525 -101.61580 18843 ft 553 kts 321°
2026-05-06 20:00 32.90861 -101.64182 18719 ft 591 kts 320°
2026-05-06 20:00 32.94497 -101.66782 18740 ft 626 kts 329°
2026-05-06 20:00 32.98860 -101.68062 18984 ft 669 kts 351°
2026-05-06 20:00 33.03536 -101.67412 19253 ft 707 kts 11°
2026-05-06 20:01 33.08078 -101.64865 19547 ft 737 kts 31°
2026-05-06 20:01 33.11703 -101.60918 19756 ft 662 kts 50°
2026-05-06 20:01 33.13861 -101.56202 19870 ft 652 kts 72°
2026-05-06 20:01 33.14622 -101.50911 19933 ft 646 kts 91°
2026-05-06 20:02 33.14596 -101.45537 19970 ft 643 kts 94°
2026-05-06 20:02 33.14494 -101.40227 19988 ft 643 kts 95°
2026-05-06 20:02 33.14373 -101.34857 19980 ft 643 kts 95°
2026-05-06 20:02 33.14224 -101.29502 19988 ft 645 kts 95°
2026-05-06 20:03 33.14070 -101.24150 19982 ft 648 kts 95°
2026-05-06 20:03 33.13916 -101.18785 19987 ft 649 kts 95°
2026-05-06 20:03 33.13764 -101.13479 19986 ft 648 kts 95°
2026-05-06 20:03 33.13573 -101.08126 19994 ft 644 kts 98°
2026-05-06 20:04 33.12496 -101.03030 19981 ft 624 kts 121°
2026-05-06 20:04 33.10174 -100.98693 20001 ft 612 kts 133°
2026-05-06 20:04 33.07599 -100.94627 19994 ft 613 kts 134°
2026-05-06 20:04 33.05021 -100.90569 19984 ft 616 kts 134°
2026-05-06 20:05 33.02423 -100.86521 19995 ft 616 kts 134°
2026-05-06 20:05 32.99832 -100.82527 19996 ft 615 kts 134°
2026-05-06 20:05 32.97218 -100.78509 19993 ft 614 kts 134°
2026-05-06 20:05 32.94598 -100.74487 19995 ft 612 kts 134°
2026-05-06 20:06 32.91973 -100.70467 19990 ft 611 kts 134°
2026-05-06 20:06 32.89343 -100.66463 19989 ft 610 kts 135°
2026-05-06 20:06 32.86567 -100.62625 19993 ft 609 kts 138°
2026-05-06 20:06 32.83760 -100.58931 19985 ft 611 kts 139°
2026-05-06 20:07 32.80913 -100.55219 19985 ft 611 kts 139°
2026-05-06 20:07 32.78052 -100.51509 19995 ft 610 kts 139°
2026-05-06 20:07 32.75178 -100.47788 20006 ft 608 kts 139°
2026-05-06 20:07 32.72310 -100.44082 20011 ft 606 kts 139°
2026-05-06 20:08 32.69380 -100.40475 20020 ft 601 kts 142°
2026-05-06 20:08 32.66335 -100.37037 19683 ft 601 kts 143°
2026-05-06 20:08 32.64315 -100.34800 19211 ft 594 kts 143°
2026-05-06 20:08 32.60299 -100.30399 18309 ft 588 kts 144°
2026-05-06 20:09 32.58265 -100.28192 17765 ft 584 kts 144°
2026-05-06 20:09 32.55312 -100.25006 16997 ft 577 kts 144°
2026-05-06 20:09 32.52347 -100.21832 16242 ft 570 kts 144°
2026-05-06 20:09 32.49405 -100.18712 15497 ft 563 kts 144°
2026-05-06 20:10 32.46487 -100.15641 14766 ft 557 kts 144°
2026-05-06 20:10 32.43578 -100.12652 14041 ft 549 kts 146°
2026-05-06 20:10 32.40570 -100.09891 13293 ft 542 kts 148°
2026-05-06 20:10 32.37582 -100.07288 12538 ft 538 kts 148°
2026-05-06 20:11 32.34556 -100.04700 11795 ft 533 kts 149°
2026-05-06 20:11 32.31546 -100.02165 11065 ft 529 kts 149°
2026-05-06 20:11 32.28544 -99.99673 10343 ft 525 kts 149°
2026-05-06 20:11 32.25599 -99.97254 9481 ft 522 kts 149°
2026-05-06 20:12 32.22592 -99.94831 8572 ft 526 kts 149°
2026-05-06 20:12 32.19576 -99.92437 7690 ft 529 kts 149°
2026-05-06 20:12 32.16501 -99.90026 6867 ft 533 kts 148°
2026-05-06 20:12 32.13653 -99.87204 5965 ft 540 kts 130°
2026-05-06 20:13 32.12252 -99.83735 5082 ft 389 kts 97°
2026-05-06 20:13 32.12731 -99.80822 4477 ft 365 kts 57°
2026-05-06 20:13 32.14570 -99.78970 4223 ft 342 kts 17°
2026-05-06 20:13 32.16820 -99.78956 4139 ft 317 kts 340°
2026-05-06 20:14 32.18814 -99.79857 4080 ft 298 kts 335°
2026-05-06 20:14 32.20725 -99.80631 4009 ft 283 kts 343°
2026-05-06 20:14 32.22602 -99.81142 3955 ft 271 kts 348°
2026-05-06 20:14 32.24430 -99.81497 3861 ft 261 kts 351°
2026-05-06 20:15 32.26193 -99.81791 3842 ft 249 kts 352°
2026-05-06 20:15 32.27875 -99.82072 3847 ft 239 kts 351°
2026-05-06 20:15 32.29475 -99.82382 3732 ft 234 kts 350°
2026-05-06 20:15 32.31054 -99.82746 3645 ft 228 kts 349°
2026-05-06 20:16 32.32696 -99.83137 3763 ft 258 kts 349°
2026-05-06 20:16 32.34615 -99.83550 3773 ft 308 kts 349°
2026-05-06 20:16 32.36938 -99.84060 3338 ft 364 kts 350°
2026-05-06 20:16 32.39524 -99.84675 2765 ft 401 kts 350°
2026-05-06 20:17 32.42383 -99.85386 2638 ft 439 kts 341°
2026-05-06 20:17 32.44834 -99.87707 3004 ft 483 kts 301°
2026-05-06 20:17 32.45616 -99.91684 3595 ft 516 kts 269°
2026-05-06 20:17 32.44598 -99.95804 4164 ft 536 kts 238°
2026-05-06 20:18 32.41663 -99.98519 4289 ft 560 kts 196°
2026-05-06 20:18 32.37825 -99.98195 4492 ft 570 kts 167°
2026-05-06 20:18 32.34021 -99.97087 4362 ft 549 kts 167°
2026-05-06 20:18 32.30382 -99.96001 4271 ft 528 kts 166°
2026-05-06 20:19 32.26856 -99.94948 4089 ft 517 kts 165°
2026-05-06 20:19 32.23631 -99.93217 4079 ft 507 kts 146°
2026-05-06 20:19 32.21195 -99.90249 3709 ft 505 kts 121°
2026-05-06 20:19 32.20126 -99.86410 3450 ft 497 kts 92°
2026-05-06 20:20 32.21150 -99.82752 3337 ft 471 kts 46°
2026-05-06 20:20 32.23996 -99.81139 3385 ft 460 kts
2026-05-06 20:20 32.27083 -99.81989 3017 ft 457 kts 338°
2026-05-06 20:20 32.29677 -99.82822 3103 ft 340 kts 351°
2026-05-06 20:21 32.31768 -99.83191 2921 ft 254 kts 353°
2026-05-06 20:21 32.33184 -99.83435 2881 ft 175 kts 354°
2026-05-06 20:21 32.34284 -99.83666 2698 ft 157 kts 352°
2026-05-06 20:21 32.35389 -99.83917 2682 ft 165 kts 352°
2026-05-06 20:22 32.36441 -99.84175 2513 ft 145 kts 351°
2026-05-06 20:22 32.37483 -99.84421 2360 ft 161 kts 353°
2026-05-06 20:22 32.38610 -99.84661 2210 ft 162 kts 353°
2026-05-06 20:22 32.39705 -99.84916 1952 ft 152 kts 350°
2026-05-06 20:23 32.40719 -99.85144 1823 ft 146 kts 352°
2026-05-06 20:23 32.41598 -99.85349 1822 ft 113 kts 347°
2026-05-06 20:23 32.42268 -99.85503 1823 ft 83 kts 348°
2026-05-06 20:23 32.42805 -99.85630 1823 ft 70 kts 350°
2026-05-06 20:24 32.43118 -99.85703 1820 ft 31 kts 348°
2026-05-06 20:24 32.43269 -99.85701 1821 ft 8 kts 57°
2026-05-06 20:24 32.43280 -99.85654 1822 ft 4 kts 77°
2026-05-06 20:24 32.43283 -99.85634 1822 ft 1 kts 80°
2026-05-06 20:25 32.43285 -99.85624 1819 ft 4 kts 80°
2026-05-06 20:25 32.43297 -99.85544 1824 ft 16 kts 76°
2026-05-06 20:25 32.43316 -99.85399 1822 ft 12 kts 102°
2026-05-06 20:25 32.43264 -99.85360 1823 ft 13 kts 171°
2026-05-06 20:26 32.43142 -99.85319 1824 ft 24 kts 169°
2026-05-06 20:26 32.42971 -99.85278 1824 ft 28 kts 169°
2026-05-06 20:26 32.42781 -99.85234 1824 ft 29 kts 170°
2026-05-06 20:26 32.42614 -99.85195 1824 ft 21 kts 170°
2026-05-06 20:27 32.42473 -99.85163 1825 ft 20 kts 168°
2026-05-06 20:27 32.42342 -99.85131 1823 ft 18 kts 169°
2026-05-06 20:27 32.42217 -99.85104 1825 ft 21 kts 169°
2026-05-06 20:27 32.42050 -99.85063 1820 ft 25 kts 168°
2026-05-06 20:28 32.41896 -99.85029 1822 ft 17 kts 168°
2026-05-06 20:28 32.41767 -99.84997 1821 ft 18 kts 168°
2026-05-06 20:28 32.41636 -99.84966 1822 ft 19 kts 169°
2026-05-06 20:28 32.41583 -99.84930 1823 ft 5 kts 102°
2026-05-06 20:29 32.41588 -99.84877 1821 ft 0 kts 80°